{"data":{"norad_id":48669,"intl_designator":"2021-044AH","name":"STARLINK-2707","alt_names":[],"object_type":"PAYLOAD","status":"ACTIVE","operator":null,"country":"US","launch_date":"2021-05-26","launch_site_code":"AFETR","launch_vehicle":null,"mission":null,"orbit_class":"UNKNOWN","rcs_meters":null,"size_class":null,"mass_kg":null,"dimensions":null,"purposes":["comms"],"wikipedia_slug":null,"has_3d_model":false,"image_url":null,"decayed_at":null,"tle_current":{"epoch":"2026-05-25T04:04:08.574816Z","epoch_age_seconds":63610,"freshness":"FRESH","line1":"1 48669U 21044AH  26145.16954369 -.00000577  00000+0 -68353-5 0  9995","line2":"2 48669  53.1585 108.3691 0001020  86.0292 274.0826 15.31701972275672","mean_motion":15.31701972,"eccentricity":0.000102,"inclination_deg":53.1585,"raan_deg":108.3691,"arg_perigee_deg":86.0292,"mean_anomaly_deg":274.0826,"bstar":-6.8353e-6,"rev_number":27567,"period_min":94.013066923178,"perigee_km":470.03553194865,"apogee_km":471.43270165648,"semimajor_km":6848.8711168026,"source":"CELESTRAK","updated_at":"2026-05-25T13:38:16.758484Z"}}}